Previsão horária em Plewniak

Hoje, 2 Março, Terça-feira

Tempo Temperatura Precipitação Vento Pressão Humidade
00:00 0°C° 0 mm 4 m/s 767 mmHg 93%
01:00 0°C° 0 mm 4 m/s 767 mmHg 93%
02:00 0°C° 0 mm 4 m/s 766 mmHg 93%
03:00 0°C° 0 mm 4 m/s 766 mmHg 93%
04:00 -1°C° 0 mm 4 m/s 765 mmHg 93%
05:00 -1°C° 0 mm 4 m/s 765 mmHg 93%
06:00 -1°C° 0 mm 4 m/s 765 mmHg 94%
07:00 -1°C° 0 mm 4 m/s 766 mmHg 94%
08:00 +1°C° 0 mm 5 m/s 765 mmHg 88%
09:00 +2°C° 0 mm 5 m/s 765 mmHg 82%
10:00 +5°C° 0 mm 5 m/s 765 mmHg 76%
11:00 +6°C° 0 mm 5 m/s 765 mmHg 70%
12:00 +7°C° 0 mm 5 m/s 765 mmHg 65%
13:00 +9°C° 0 mm 5 m/s 765 mmHg 59%
14:00 +8°C° 0 mm 5 m/s 765 mmHg 60%
15:00 +8°C° 0 mm 5 m/s 764 mmHg 61%
16:00 +8°C° 0 mm 4 m/s 764 mmHg 62%
17:00 +7°C° 0 mm 4 m/s 764 mmHg 67%
18:00 +5°C° 0 mm 3 m/s 765 mmHg 73%
19:00 +4°C° 0 mm 3 m/s 765 mmHg 79%
20:00 +5°C° 0 mm 2 m/s 765 mmHg 82%
21:00 +4°C° 0 mm 2 m/s 765 mmHg 84%
22:00 +3°C° 0 mm 2 m/s 766 mmHg 87%
23:00 +4°C° 0 mm 1 m/s 766 mmHg 88%

Amanhã, 3 Março, Quarta-feira

Tempo Temperatura Precipitação Vento Pressão Humidade
00:00 +3°C° 0 mm 1 m/s 766 mmHg 90%
01:00 +3°C° 0 mm 1 m/s 766 mmHg 91%
02:00 +3°C° 0 mm 1 m/s 766 mmHg 91%
03:00 +1°C° 0 mm 0 m/s 765 mmHg 91%
04:00 +1°C° 0 mm 0 m/s 765 mmHg 91%
05:00 +1°C° 0 mm 0 m/s 765 mmHg 90%
06:00 +2°C° 0 mm 0 m/s 765 mmHg 89%
07:00 +2°C° 0 mm 0 m/s 765 mmHg 88%
08:00 +4°C° 0 mm 1 m/s 765 mmHg 83%
09:00 +5°C° 0 mm 1 m/s 765 mmHg 78%
10:00 +6°C° 0 mm 1 m/s 764 mmHg 73%
11:00 +8°C° 0 mm 1 m/s 764 mmHg 70%
12:00 +8°C° 0 mm 2 m/s 763 mmHg 66%
13:00 +9°C° 0 mm 2 m/s 763 mmHg 62%
14:00 +9°C° 0 mm 2 m/s 762 mmHg 63%
15:00 +9°C° 0 mm 2 m/s 761 mmHg 63%
16:00 +10°C° 0 mm 2 m/s 760 mmHg 63%
17:00 +8°C° 0 mm 2 m/s 760 mmHg 67%
18:00 +7°C° 0 mm 2 m/s 759 mmHg 70%
19:00 +6°C° 0 mm 2 m/s 759 mmHg 74%
20:00 +5°C° 0 mm 2 m/s 758 mmHg 74%
21:00 +5°C° 0 mm 2 m/s 758 mmHg 74%
22:00 +3°C° 0 mm 3 m/s 757 mmHg 74%
23:00 +3°C° 0 mm 3 m/s 756 mmHg 76%

Depois de amanhã, 4 Março, Quinta-feira

Tempo Temperatura Precipitação Vento Pressão Humidade
00:00 +3°C° 0 mm 3 m/s 756 mmHg 78%
01:00 +2°C° 0 mm 3 m/s 755 mmHg 80%
02:00 +2°C° 0 mm 3 m/s 754 mmHg 82%
03:00 +1°C° 0 mm 4 m/s 754 mmHg 84%
04:00 +1°C° 0 mm 4 m/s 753 mmHg 86%
05:00 +1°C° 0 mm 4 m/s 753 mmHg 88%
06:00 +1°C° 0 mm 4 m/s 752 mmHg 89%
07:00 +1°C° 0 mm 4 m/s 752 mmHg 90%
08:00 +2°C° 0 mm 5 m/s 752 mmHg 87%
09:00 +3°C° 0 mm 5 m/s 751 mmHg 85%
10:00 +6°C° 0 mm 5 m/s 751 mmHg 82%
11:00 +6°C° 0 mm 5 m/s 751 mmHg 77%
12:00 +7°C° 0 mm 5 m/s 750 mmHg 73%
13:00 +8°C° 0 mm 5 m/s 750 mmHg 68%
14:00 +8°C° 0 mm 5 m/s 750 mmHg 69%
15:00 +7°C° 0 mm 4 m/s 749 mmHg 70%
16:00 +7°C° 0 mm 4 m/s 749 mmHg 71%
17:00 +7°C° 0 mm 3 m/s 749 mmHg 75%
18:00 +5°C° 0 mm 3 m/s 749 mmHg 78%
19:00 +5°C° 0 mm 2 m/s 749 mmHg 82%
20:00 +5°C° 0 mm 2 m/s 749 mmHg 82%
21:00 +4°C° 0 mm 2 m/s 749 mmHg 83%
22:00 +5°C° 0 mm 1 m/s 749 mmHg 83%
23:00 +3°C° 0.1 mm 2 m/s 748 mmHg 86%

5 Março, Sexta-feira

Tempo Temperatura Precipitação Vento Pressão Humidade
00:00 +3°C° 0.1 mm 2 m/s 748 mmHg 89%
01:00 +2°C° 0.1 mm 2 m/s 748 mmHg 92%
02:00 +1°C° 0.2 mm 3 m/s 748 mmHg 92%
03:00 0°C° 0.2 mm 3 m/s 748 mmHg 92%
04:00 -2°C° 0.2 mm 4 m/s 748 mmHg 92%
05:00 -2°C° 0.2 mm 4 m/s 749 mmHg 92%
06:00 -2°C° 0.2 mm 5 m/s 750 mmHg 92%
07:00 -4°C° 0.2 mm 5 m/s 750 mmHg 91%
08:00 -2°C° 0 mm 5 m/s 751 mmHg 83%
09:00 -1°C° 0 mm 5 m/s 751 mmHg 75%
10:00 -1°C° 0 mm 5 m/s 752 mmHg 67%
11:00 0°C° 0 mm 5 m/s 752 mmHg 60%
12:00 0°C° 0 mm 5 m/s 753 mmHg 53%
13:00 +1°C° 0 mm 5 m/s 753 mmHg 47%
14:00 +1°C° 0 mm 4 m/s 754 mmHg 45%
15:00 +1°C° 0 mm 4 m/s 754 mmHg 44%
16:00 +1°C° 0 mm 4 m/s 754 mmHg 42%
17:00 +1°C° 0 mm 3 m/s 755 mmHg 49%
18:00 0°C° 0 mm 3 m/s 755 mmHg 55%
19:00 -1°C° 0 mm 3 m/s 756 mmHg 62%
20:00 -1°C° 0 mm 3 m/s 757 mmHg 64%
21:00 -2°C° 0 mm 3 m/s 757 mmHg 65%
22:00 -2°C° 0 mm 3 m/s 758 mmHg 67%
23:00 -2°C° 0 mm 3 m/s 758 mmHg 69%

6 Março, Sábado

Tempo Temperatura Precipitação Vento Pressão Humidade
00:00 -4°C° 0 mm 3 m/s 759 mmHg 70%
01:00 -4°C° 0 mm 3 m/s 759 mmHg 72%
02:00 -4°C° 0 mm 3 m/s 759 mmHg 71%
03:00 -4°C° 0 mm 3 m/s 760 mmHg 70%
04:00 -4°C° 0 mm 3 m/s 760 mmHg 69%
05:00 -4°C° 0 mm 3 m/s 761 mmHg 67%
06:00 -4°C° 0 mm 4 m/s 761 mmHg 65%
07:00 -4°C° 0 mm 4 m/s 762 mmHg 63%
08:00 -3°C° 0 mm 4 m/s 762 mmHg 57%
09:00 -2°C° 0 mm 4 m/s 763 mmHg 51%
10:00 -1°C° 0 mm 4 m/s 763 mmHg 45%
11:00 0°C° 0 mm 4 m/s 763 mmHg 43%
12:00 0°C° 0 mm 4 m/s 763 mmHg 41%
13:00 0°C° 0 mm 4 m/s 763 mmHg 39%
14:00 0°C° 0 mm 4 m/s 764 mmHg 40%
15:00 0°C° 0 mm 4 m/s 764 mmHg 41%
16:00 0°C° 0 mm 4 m/s 764 mmHg 42%
17:00 0°C° 0 mm 3 m/s 764 mmHg 47%
18:00 -1°C° 0 mm 3 m/s 764 mmHg 52%
19:00 -2°C° 0 mm 2 m/s 765 mmHg 58%
20:00 -3°C° 0 mm 2 m/s 765 mmHg 58%
21:00 -3°C° 0 mm 2 m/s 765 mmHg 58%
22:00 -3°C° 0 mm 2 m/s 765 mmHg 59%
23:00 -4°C° 0 mm 3 m/s 765 mmHg 59%

7 Março, Domingo

Tempo Temperatura Precipitação Vento Pressão Humidade
00:00 -4°C° 0 mm 3 m/s 765 mmHg 60%
01:00 -4°C° 0 mm 3 m/s 765 mmHg 60%
02:00 -4°C° 0 mm 3 m/s 765 mmHg 60%
03:00 -4°C° 0 mm 4 m/s 764 mmHg 60%
04:00 -4°C° 0 mm 4 m/s 764 mmHg 60%
05:00 -4°C° 0 mm 4 m/s 764 mmHg 59%
06:00 -4°C° 0 mm 5 m/s 764 mmHg 59%
07:00 -4°C° 0 mm 5 m/s 764 mmHg 58%
08:00 -3°C° 0 mm 6 m/s 763 mmHg 53%
09:00 -1°C° 0 mm 7 m/s 763 mmHg 48%
10:00 0°C° 0 mm 7 m/s 763 mmHg 42%
11:00 0°C° 0 mm 7 m/s 762 mmHg 46%
12:00 +2°C° 0 mm 7 m/s 762 mmHg 49%
13:00 +3°C° 0 mm 7 m/s 761 mmHg 53%
14:00 +2°C° 0 mm 7 m/s 761 mmHg 57%
15:00 +2°C° 0 mm 6 m/s 760 mmHg 61%
16:00 +1°C° 0 mm 6 m/s 760 mmHg 65%
17:00 +1°C° 0 mm 5 m/s 759 mmHg 69%
18:00 0°C° 0 mm 5 m/s 759 mmHg 74%
19:00 -1°C° 0 mm 4 m/s 759 mmHg 78%
20:00 -1°C° 0 mm 4 m/s 758 mmHg 79%
21:00 -1°C° 0 mm 4 m/s 758 mmHg 80%
22:00 -2°C° 0 mm 5 m/s 758 mmHg 80%
23:00 -2°C° 0 mm 5 m/s 757 mmHg 80%
Mostrar mais

Necessitamos do seu Consentimento

A Meteoprog e os seus Fornecedores de Serviços podem armazenar e aceder a dados pessoais como cookies, identificadores do dispositivo ou outras tecnologias semelhantes existentes no seu dispositivo e processar estes dados para personalizar conteúdos e anúncios, assim como funcionalidades nas redes sociais e análise de tráfego.

  • Armazenar e/ou aceder a informações no seu dispositivo

    Os cookies, identificadores do dispositivo ou outras informações podem ser armazenados ou acedidos no seu dispositivo, para os fins acima indicados.

  • Anúncios e conteúdos personalizados, medição de anúncios e conteúdos, dados sobre o público-alvo e desenvolvimento de produtos

    Os anúncios e os conteúdos podem ser personalizados com base num perfil. Podem ser adicionados dados adicionais para uma maior personalização dos anúncios e dos conteúdos. A eficácia dos anúncios e dos conteúdos pode ser medida. Podem ser obtidas informações sobre o público que visualizou os anúncios e os conteúdos. Estes dados podem ser usados para desenvolver ou melhorar sistemas, softwares ou a experiência do utilizador.

Ao clicar em "Eu concordo”, permitirá o uso de cookies, identificadores do dispositivo e web beacons mencionados ou outras tecnologias semelhantes. As configurações do navegador do seu dispositivo podem ser alteradas.

Para certos fins, podem ser invocados interesses legítimos ao invés de consentimento. Pode ler mais informação sobre este assunto na nossa Política de Privacidade e Cookies.